date,time,SUV Intensity [MED/Hr],UV Index,Daily total [MED],Since Last [MED]
25/03/2022,00:06:07,0.000,0.0,0.0,0.0
25/03/2022,00:07:07,0.000,0.0,0.0,0.0
25/03/2022,00:08:07,0.000,0.0,0.0,0.0
25/03/2022,00:09:07,0.000,0.0,0.0,0.0
25/03/2022,00:10:08,0.000,0.0,0.0,0.0
25/03/2022,00:11:08,0.001,0.0,0.0,0.0
25/03/2022,00:12:08,0.000,0.0,0.0,0.0
25/03/2022,00:13:07,-0.000,0.0,0.0,0.0
25/03/2022,00:14:07,0.000,0.0,0.0,0.0
25/03/2022,00:15:07,0.000,0.0,0.0,0.0
25/03/2022,00:16:08,0.000,0.0,0.0,0.0
25/03/2022,00:17:08,0.000,0.0,0.0,0.0
25/03/2022,00:18:08,-0.000,0.0,0.0,0.0
25/03/2022,00:19:08,0.000,0.0,0.0,0.0
25/03/2022,00:20:08,0.000,0.0,0.0,0.0
25/03/2022,00:21:08,0.000,0.0,0.0,0.0
25/03/2022,00:22:08,0.000,0.0,0.0,0.0
25/03/2022,00:23:07,0.000,0.0,0.0,0.0
25/03/2022,00:24:15,0.000,0.0,0.0,0.0
25/03/2022,00:26:08,-0.000,0.0,0.0,0.0
25/03/2022,00:27:07,0.000,0.0,0.0,0.0
25/03/2022,00:28:07,-0.000,0.0,0.0,0.0
25/03/2022,00:29:07,0.000,0.0,0.0,0.0
25/03/2022,00:30:08,0.000,0.0,0.0,0.0
25/03/2022,00:31:07,0.000,0.0,0.0,0.0
25/03/2022,00:32:07,0.000,0.0,0.0,0.0
25/03/2022,00:33:08,0.000,0.0,0.0,0.0
25/03/2022,00:34:08,-0.000,0.0,0.0,0.0
25/03/2022,00:35:07,0.000,0.0,0.0,0.0
25/03/2022,00:36:07,0.000,0.0,0.0,0.0
25/03/2022,00:37:07,-0.000,0.0,0.0,0.0
25/03/2022,00:38:16,-0.000,0.0,0.0,0.0
25/03/2022,00:39:06,0.001,0.0,0.0,0.0
25/03/2022,00:40:07,0.000,0.0,0.0,0.0
25/03/2022,00:41:08,0.000,0.0,0.0,0.0
25/03/2022,00:42:08,0.000,0.0,0.0,0.0
25/03/2022,00:43:08,0.000,0.0,0.0,0.0
25/03/2022,00:44:07,-0.000,0.0,0.0,0.0
25/03/2022,00:45:08,0.000,0.0,0.0,0.0
25/03/2022,00:46:07,0.000,0.0,0.0,0.0
25/03/2022,00:47:01,-0.000,0.0,0.0,0.0
25/03/2022,00:48:08,0.000,0.0,0.0,0.0
25/03/2022,00:49:09,0.000,0.0,0.0,0.0
25/03/2022,00:50:08,0.000,0.0,0.0,0.0
25/03/2022,00:51:07,0.000,0.0,0.0,0.0
25/03/2022,00:52:07,0.000,0.0,0.0,0.0
25/03/2022,00:53:08,0.000,0.0,0.0,0.0
25/03/2022,00:54:08,0.001,0.0,0.0,0.0
25/03/2022,00:55:07,-0.000,0.0,0.0,0.0
25/03/2022,00:56:07,0.000,0.0,0.0,0.0
25/03/2022,00:57:07,-0.000,0.0,0.0,0.0
25/03/2022,00:58:08,0.001,0.0,0.0,0.0
25/03/2022,00:59:08,0.000,0.0,0.0,0.0
25/03/2022,01:00:08,0.000,0.0,0.0,0.0
25/03/2022,01:01:07,0.000,0.0,0.0,0.0
25/03/2022,01:02:08,0.000,0.0,0.0,0.0
25/03/2022,01:03:07,0.000,0.0,0.0,0.0
25/03/2022,01:04:15,0.000,0.0,0.0,0.0
25/03/2022,01:06:11,-0.000,0.0,0.0,0.0
25/03/2022,01:07:07,0.000,0.0,0.0,0.0
25/03/2022,01:08:08,0.000,0.0,0.0,0.0
25/03/2022,01:09:08,0.000,0.0,0.0,0.0
25/03/2022,01:10:07,0.000,0.0,0.0,0.0
25/03/2022,01:19:23,0.001,0.0,0.0,0.0
25/03/2022,01:20:16,0.000,0.0,0.0,0.0
25/03/2022,01:21:08,-0.000,0.0,0.0,0.0
25/03/2022,01:22:08,0.000,0.0,0.0,0.0
25/03/2022,01:23:07,0.000,0.0,0.0,0.0
25/03/2022,01:24:08,0.000,0.0,0.0,0.0
25/03/2022,01:25:08,0.000,0.0,0.0,0.0
25/03/2022,01:26:07,0.001,0.0,0.0,0.0
25/03/2022,01:27:15,0.000,0.0,0.0,0.0
25/03/2022,01:28:06,-0.000,0.0,0.0,0.0
25/03/2022,01:29:07,0.000,0.0,0.0,0.0
25/03/2022,01:30:16,0.000,0.0,0.0,0.0
25/03/2022,01:31:07,0.000,0.0,0.0,0.0
25/03/2022,01:32:08,-0.001,0.0,0.0,0.0
25/03/2022,01:33:16,0.000,0.0,0.0,0.0
25/03/2022,01:34:16,0.000,0.0,0.0,0.0
25/03/2022,01:35:07,0.000,0.0,0.0,0.0
25/03/2022,01:36:07,0.000,0.0,0.0,0.0
25/03/2022,01:37:07,0.000,0.0,0.0,0.0
25/03/2022,01:38:07,0.001,0.0,0.0,0.0
25/03/2022,01:39:08,0.000,0.0,0.0,0.0
25/03/2022,01:40:08,0.001,0.0,0.0,0.0
25/03/2022,01:41:07,0.000,0.0,0.0,0.0
25/03/2022,01:42:08,-0.000,0.0,0.0,0.0
25/03/2022,01:43:15,0.000,0.0,0.0,0.0
25/03/2022,01:44:08,0.001,0.0,0.0,0.0
25/03/2022,01:45:08,0.001,0.0,0.0,0.0
25/03/2022,01:46:16,0.000,0.0,0.0,0.0
25/03/2022,01:47:16,0.000,0.0,0.0,0.0
25/03/2022,01:48:08,0.000,0.0,0.0,0.0
25/03/2022,01:49:08,-0.000,0.0,0.0,0.0
25/03/2022,01:50:08,0.001,0.0,0.0,0.0
25/03/2022,01:51:08,0.000,0.0,0.0,0.0
25/03/2022,01:52:07,0.000,0.0,0.0,0.0
25/03/2022,01:53:08,0.001,0.0,0.0,0.0
25/03/2022,01:54:13,0.000,0.0,0.0,0.0
25/03/2022,01:55:07,0.002,0.0,0.0,0.0
25/03/2022,01:56:16,0.001,0.0,0.0,0.0
25/03/2022,01:57:07,0.000,0.0,0.0,0.0
25/03/2022,01:58:07,0.001,0.0,0.0,0.0
25/03/2022,01:59:07,-0.000,0.0,0.0,0.0
25/03/2022,02:00:09,0.001,0.0,0.0,0.0
25/03/2022,02:01:08,0.000,0.0,0.0,0.0
25/03/2022,02:02:08,0.000,0.0,0.0,0.0
25/03/2022,02:03:08,0.000,0.0,0.0,0.0
25/03/2022,02:04:08,0.000,0.0,0.0,0.0
25/03/2022,02:05:07,0.000,0.0,0.0,0.0
25/03/2022,02:06:08,0.001,0.0,0.0,0.0
25/03/2022,02:07:08,0.000,0.0,0.0,0.0
25/03/2022,02:08:08,0.001,0.0,0.0,0.0
25/03/2022,02:09:08,0.001,0.0,0.0,0.0
25/03/2022,02:10:08,0.000,0.0,0.0,0.0
25/03/2022,02:11:08,-0.000,0.0,0.0,0.0
25/03/2022,02:12:16,-0.000,0.0,0.0,0.0
25/03/2022,02:14:16,0.000,0.0,0.0,0.0
25/03/2022,02:16:17,0.001,0.0,0.0,0.0
25/03/2022,02:18:08,0.001,0.0,0.0,0.0
25/03/2022,02:19:08,0.001,0.0,0.0,0.0
25/03/2022,02:20:07,0.001,0.0,0.0,0.0
25/03/2022,02:21:07,0.001,0.0,0.0,0.0
25/03/2022,02:22:16,0.001,0.0,0.0,0.0
25/03/2022,02:24:08,0.001,0.0,0.0,0.0
25/03/2022,02:25:07,-0.000,0.0,0.0,0.0
25/03/2022,02:26:08,0.001,0.0,0.0,0.0
25/03/2022,02:27:08,0.001,0.0,0.0,0.0
25/03/2022,02:28:07,0.001,0.0,0.0,0.0
25/03/2022,02:29:07,0.001,0.0,0.0,0.0
25/03/2022,02:30:07,0.000,0.0,0.0,0.0
25/03/2022,02:31:07,0.002,0.0,0.0,0.0
25/03/2022,02:32:07,0.001,0.0,0.0,0.0
25/03/2022,02:33:07,0.001,0.0,0.0,0.0
25/03/2022,02:34:08,0.001,0.0,0.0,0.0
25/03/2022,02:35:08,0.002,0.0,0.0,0.0
25/03/2022,02:36:08,-0.000,0.0,0.0,0.0
25/03/2022,02:37:08,0.000,0.0,0.0,0.0
25/03/2022,02:38:07,0.001,0.0,0.0,0.0
25/03/2022,02:39:07,0.001,0.0,0.0,0.0
25/03/2022,02:40:08,0.001,0.0,0.0,0.0
25/03/2022,02:41:07,0.001,0.0,0.0,0.0
25/03/2022,02:42:08,0.001,0.0,0.0,0.0
25/03/2022,02:43:08,0.001,0.0,0.0,0.0
25/03/2022,02:44:07,0.001,0.0,0.0,0.0
25/03/2022,02:45:07,0.001,0.0,0.0,0.0
25/03/2022,02:46:16,0.001,0.0,0.0,0.0
25/03/2022,02:47:07,0.001,0.0,0.0,0.0
25/03/2022,02:48:07,0.000,0.0,0.0,0.0
25/03/2022,02:49:07,0.002,0.0,0.0,0.0
25/03/2022,02:50:08,0.001,0.0,0.0,0.0
25/03/2022,02:51:08,0.001,0.0,0.0,0.0
25/03/2022,02:52:07,0.002,0.0,0.0,0.0
25/03/2022,02:53:07,0.001,0.0,0.0,0.0
25/03/2022,02:54:08,0.000,0.0,0.0,0.0
25/03/2022,02:55:08,0.000,0.0,0.0,0.0
25/03/2022,02:56:08,-0.000,0.0,0.0,0.0
25/03/2022,02:57:08,0.001,0.0,0.0,0.0
25/03/2022,02:58:08,0.001,0.0,0.0,0.0
25/03/2022,02:59:08,0.001,0.0,0.0,0.0
25/03/2022,03:00:08,0.001,0.0,0.0,0.0
25/03/2022,03:01:07,0.002,0.0,0.0,0.0
25/03/2022,03:02:08,0.000,0.0,0.0,0.0
25/03/2022,03:03:07,0.001,0.0,0.0,0.0
25/03/2022,03:04:08,-0.000,0.0,0.0,0.0
25/03/2022,03:05:08,0.002,0.0,0.0,0.0
25/03/2022,03:06:08,0.001,0.0,0.0,0.0
25/03/2022,03:07:08,0.001,0.0,0.0,0.0
25/03/2022,03:08:08,0.001,0.0,0.0,0.0
25/03/2022,03:09:16,0.001,0.0,0.0,0.0
25/03/2022,03:11:09,0.001,0.0,0.0,0.0
25/03/2022,03:12:15,0.001,0.0,0.0,0.0
25/03/2022,03:13:06,0.001,0.0,0.0,0.0
25/03/2022,03:14:08,0.001,0.0,0.0,0.0
25/03/2022,03:15:15,0.001,0.0,0.0,0.0
25/03/2022,03:16:07,0.001,0.0,0.0,0.0
25/03/2022,03:17:08,0.001,0.0,0.0,0.0
25/03/2022,03:18:08,0.001,0.0,0.0,0.0
25/03/2022,03:19:08,0.001,0.0,0.0,0.0
25/03/2022,03:20:07,0.001,0.0,0.0,0.0
25/03/2022,03:21:07,0.001,0.0,0.0,0.0
25/03/2022,03:22:08,0.001,0.0,0.0,0.0
25/03/2022,03:23:08,0.001,0.0,0.0,0.0
25/03/2022,03:24:07,0.001,0.0,0.0,0.0
25/03/2022,03:25:16,0.001,0.0,0.0,0.0
25/03/2022,03:27:09,0.002,0.0,0.0,0.0
25/03/2022,03:28:08,0.001,0.0,0.0,0.0
25/03/2022,03:29:08,0.001,0.0,0.0,0.0
25/03/2022,03:30:08,0.001,0.0,0.0,0.0
25/03/2022,03:31:08,0.001,0.0,0.0,0.0
25/03/2022,03:32:08,0.002,0.0,0.0,0.0
25/03/2022,03:33:08,0.001,0.0,0.0,0.0
25/03/2022,03:34:08,0.001,0.0,0.0,0.0
25/03/2022,03:35:16,0.002,0.0,0.0,0.0
25/03/2022,03:36:07,-0.000,0.0,0.0,0.0
25/03/2022,03:37:08,0.001,0.0,0.0,0.0
25/03/2022,03:38:08,0.001,0.0,0.0,0.0
25/03/2022,03:39:08,0.000,0.0,0.0,0.0
25/03/2022,03:40:08,0.002,0.0,0.0,0.0
25/03/2022,03:41:08,0.001,0.0,0.0,0.0
25/03/2022,03:42:08,0.000,0.0,0.0,0.0
25/03/2022,03:43:08,0.001,0.0,0.0,0.0
25/03/2022,03:44:07,0.001,0.0,0.0,0.0
25/03/2022,03:45:08,0.002,0.0,0.0,0.0
25/03/2022,03:46:08,0.001,0.0,0.0,0.0
25/03/2022,03:47:16,0.001,0.0,0.0,0.0
25/03/2022,03:49:09,0.001,0.0,0.0,0.0
25/03/2022,03:50:08,0.001,0.0,0.0,0.0
25/03/2022,03:51:16,0.001,0.0,0.0,0.0
25/03/2022,03:53:08,0.000,0.0,0.0,0.0
25/03/2022,03:54:08,0.002,0.0,0.0,0.0
25/03/2022,03:55:08,0.001,0.0,0.0,0.0
25/03/2022,03:56:08,-0.000,0.0,0.0,0.0
25/03/2022,03:57:08,0.001,0.0,0.0,0.0
25/03/2022,03:58:16,0.001,0.0,0.0,0.0
25/03/2022,03:59:06,0.001,0.0,0.0,0.0
25/03/2022,04:00:08,0.001,0.0,0.0,0.0
25/03/2022,04:01:08,0.001,0.0,0.0,0.0
25/03/2022,04:02:07,0.002,0.0,0.0,0.0
25/03/2022,04:03:08,0.000,0.0,0.0,0.0
25/03/2022,04:04:08,0.001,0.0,0.0,0.0
25/03/2022,04:05:08,0.001,0.0,0.0,0.0
25/03/2022,04:06:08,0.002,0.0,0.0,0.0
25/03/2022,04:07:08,0.000,0.0,0.0,0.0
25/03/2022,04:08:08,0.001,0.0,0.0,0.0
25/03/2022,04:09:07,0.001,0.0,0.0,0.0
25/03/2022,04:10:08,0.001,0.0,0.0,0.0
25/03/2022,04:11:16,0.002,0.0,0.0,0.0
25/03/2022,04:12:07,0.001,0.0,0.0,0.0
25/03/2022,04:13:08,0.001,0.0,0.0,0.0
25/03/2022,04:14:15,0.002,0.0,0.0,0.0
25/03/2022,04:15:07,0.001,0.0,0.0,0.0
25/03/2022,04:16:07,0.001,0.0,0.0,0.0
25/03/2022,04:17:09,0.001,0.0,0.0,0.0
25/03/2022,04:18:08,0.002,0.0,0.0,0.0
25/03/2022,04:19:07,0.002,0.0,0.0,0.0
25/03/2022,04:20:07,0.001,0.0,0.0,0.0
25/03/2022,04:21:08,-0.000,0.0,0.0,0.0
25/03/2022,04:22:08,0.001,0.0,0.0,0.0
25/03/2022,04:23:08,0.001,0.0,0.0,0.0
25/03/2022,04:24:08,0.001,0.0,0.0,0.0
25/03/2022,04:25:07,0.000,0.0,0.0,0.0
25/03/2022,04:26:08,0.001,0.0,0.0,0.0
25/03/2022,04:27:16,0.001,0.0,0.0,0.0
25/03/2022,04:28:07,0.000,0.0,0.0,0.0
25/03/2022,04:29:08,0.002,0.0,0.0,0.0
25/03/2022,04:30:08,0.001,0.0,0.0,0.0
25/03/2022,04:31:07,0.001,0.0,0.0,0.0
25/03/2022,04:32:08,0.002,0.0,0.0,0.0
25/03/2022,04:33:08,0.001,0.0,0.0,0.0
25/03/2022,04:34:08,0.001,0.0,0.0,0.0
25/03/2022,04:35:08,0.001,0.0,0.0,0.0
25/03/2022,04:36:08,0.001,0.0,0.0,0.0
25/03/2022,04:37:17,0.001,0.0,0.0,0.0
25/03/2022,04:39:08,0.000,0.0,0.0,0.0
25/03/2022,04:40:08,0.002,0.0,0.0,0.0
25/03/2022,04:41:08,0.001,0.0,0.0,0.0
25/03/2022,04:42:08,0.002,0.0,0.0,0.0
25/03/2022,04:43:08,0.001,0.0,0.0,0.0
25/03/2022,04:44:08,0.001,0.0,0.0,0.0
25/03/2022,04:45:08,0.001,0.0,0.0,0.0
25/03/2022,04:46:07,0.001,0.0,0.0,0.0
25/03/2022,04:47:16,0.002,0.0,0.0,0.0
25/03/2022,04:49:08,0.002,0.0,0.0,0.0
25/03/2022,04:50:08,0.001,0.0,0.0,0.0
25/03/2022,04:51:08,0.000,0.0,0.0,0.0
25/03/2022,04:52:08,0.000,0.0,0.0,0.0
25/03/2022,04:53:08,0.000,0.0,0.0,0.0
25/03/2022,04:54:08,0.000,0.0,0.0,0.0
25/03/2022,04:55:08,0.001,0.0,0.0,0.0
25/03/2022,04:56:08,0.002,0.0,0.0,0.0
25/03/2022,04:57:08,0.002,0.0,0.0,0.0
25/03/2022,04:58:08,0.001,0.0,0.0,0.0
25/03/2022,04:59:08,0.001,0.0,0.0,0.0
25/03/2022,05:00:08,0.001,0.0,0.0,0.0
25/03/2022,05:01:08,0.001,0.0,0.0,0.0
25/03/2022,05:02:08,0.002,0.0,0.0,0.0
25/03/2022,05:03:07,0.001,0.0,0.0,0.0
25/03/2022,05:04:08,0.001,0.0,0.0,0.0
25/03/2022,05:05:08,0.001,0.0,0.0,0.0
25/03/2022,05:06:08,0.001,0.0,0.0,0.0
25/03/2022,05:07:08,0.002,0.0,0.0,0.0
25/03/2022,05:08:08,0.002,0.0,0.0,0.0
25/03/2022,05:09:08,0.001,0.0,0.0,0.0
25/03/2022,05:10:08,0.001,0.0,0.0,0.0
25/03/2022,05:11:17,0.001,0.0,0.0,0.0
25/03/2022,05:12:08,0.001,0.0,0.0,0.0
25/03/2022,05:13:08,0.000,0.0,0.0,0.0
25/03/2022,05:14:08,0.001,0.0,0.0,0.0
25/03/2022,05:15:07,0.001,0.0,0.0,0.0
25/03/2022,05:16:08,0.001,0.0,0.0,0.0
25/03/2022,05:17:07,0.001,0.0,0.0,0.0
25/03/2022,05:18:08,0.000,0.0,0.0,0.0
25/03/2022,05:19:08,0.001,0.0,0.0,0.0
25/03/2022,05:20:07,0.000,0.0,0.0,0.0
25/03/2022,05:21:08,0.001,0.0,0.0,0.0
25/03/2022,05:22:08,0.000,0.0,0.0,0.0
25/03/2022,05:23:07,0.001,0.0,0.0,0.0
25/03/2022,05:24:10,0.001,0.0,0.0,0.0
25/03/2022,05:25:08,0.001,0.0,0.0,0.0
25/03/2022,05:26:08,0.001,0.0,0.0,0.0
25/03/2022,05:27:08,0.002,0.0,0.0,0.0
25/03/2022,05:28:07,0.001,0.0,0.0,0.0
25/03/2022,05:29:09,0.001,0.0,0.0,0.0
25/03/2022,05:30:08,0.002,0.0,0.0,0.0
25/03/2022,05:31:07,0.000,0.0,0.0,0.0
25/03/2022,05:32:08,0.001,0.0,0.0,0.0
25/03/2022,05:33:08,0.000,0.0,0.0,0.0
25/03/2022,05:34:16,0.001,0.0,0.0,0.0
25/03/2022,05:35:08,0.001,0.0,0.0,0.0
25/03/2022,05:36:08,0.002,0.0,0.0,0.0
25/03/2022,05:37:08,0.001,0.0,0.0,0.0
25/03/2022,05:38:08,0.002,0.0,0.0,0.0
25/03/2022,05:39:08,0.002,0.0,0.0,0.0
25/03/2022,05:40:08,0.001,0.0,0.0,0.0
25/03/2022,05:41:08,0.001,0.0,0.0,0.0
25/03/2022,05:42:08,0.001,0.0,0.0,0.0
25/03/2022,05:43:08,0.001,0.0,0.0,0.0
25/03/2022,05:44:08,0.002,0.0,0.0,0.0
25/03/2022,05:45:08,0.002,0.0,0.0,0.0
25/03/2022,05:46:08,0.001,0.0,0.0,0.0
25/03/2022,05:47:16,0.001,0.0,0.0,0.0
25/03/2022,05:48:08,0.002,0.0,0.0,0.0
25/03/2022,05:49:08,0.001,0.0,0.0,0.0
25/03/2022,05:50:08,0.002,0.0,0.0,0.0
25/03/2022,05:51:08,0.002,0.0,0.0,0.0
25/03/2022,05:52:08,0.001,0.0,0.0,0.0
25/03/2022,05:53:08,0.003,0.0,0.0,0.0
25/03/2022,05:54:08,0.003,0.0,0.0,0.0
25/03/2022,05:55:08,0.002,0.0,0.0,0.0
25/03/2022,05:56:08,0.003,0.0,0.0,0.0
25/03/2022,05:57:16,0.003,0.0,0.0,0.0
25/03/2022,05:58:09,0.003,0.0,0.0,0.0
25/03/2022,05:59:08,0.004,0.0,0.0,0.0
25/03/2022,06:00:16,0.003,0.0,0.0,0.0
25/03/2022,06:01:08,0.004,0.0,0.0,0.0
25/03/2022,06:02:08,0.003,0.0,0.0,0.0
25/03/2022,06:03:16,0.004,0.0,0.0,0.0
25/03/2022,06:04:08,0.003,0.0,0.0,0.0
25/03/2022,06:05:07,0.004,0.0,0.0,0.0
25/03/2022,06:06:08,0.004,0.0,0.0,0.0
25/03/2022,06:07:08,0.004,0.0,0.0,0.0
25/03/2022,06:08:08,0.005,0.0,0.0,0.0
25/03/2022,06:09:08,0.004,0.0,0.0,0.0
25/03/2022,06:10:08,0.005,0.0,0.0,0.0
25/03/2022,06:11:08,0.005,0.0,0.0,0.0
25/03/2022,06:12:08,0.005,0.0,0.0,0.0
25/03/2022,06:13:16,0.006,0.0,0.0,0.0
25/03/2022,06:14:08,0.006,0.0,0.0,0.0
25/03/2022,06:15:08,0.006,0.0,0.0,0.0
25/03/2022,06:16:08,0.007,0.0,0.0,0.0
25/03/2022,06:17:08,0.007,0.0,0.0,0.0
25/03/2022,06:18:07,0.008,0.0,0.001,0.001
25/03/2022,06:19:07,0.008,0.0,0.001,0.0
25/03/2022,06:20:07,0.008,0.0,0.001,0.0
25/03/2022,06:21:08,0.009,0.0,0.001,0.0
25/03/2022,06:22:08,0.009,0.0,0.001,0.0
25/03/2022,06:23:08,0.009,0.0,0.001,0.0
25/03/2022,06:24:08,0.010,0.0,0.001,0.0
25/03/2022,06:25:07,0.011,0.0,0.002,0.001
25/03/2022,06:26:08,0.011,0.0,0.002,0.0
25/03/2022,06:27:08,0.011,0.0,0.002,0.0
25/03/2022,06:28:08,0.012,0.0,0.002,0.0
25/03/2022,06:29:08,0.012,0.0,0.002,0.0
25/03/2022,06:30:08,0.013,0.0,0.003,0.001
25/03/2022,06:31:08,0.014,0.0,0.003,0.0
25/03/2022,06:32:08,0.015,0.0,0.003,0.0
25/03/2022,06:33:08,0.014,0.0,0.003,0.0
25/03/2022,06:34:08,0.015,0.0,0.003,0.0
25/03/2022,06:35:08,0.016,0.0,0.004,0.001
25/03/2022,06:36:08,0.017,0.0,0.004,0.0
25/03/2022,06:37:16,0.017,0.0,0.004,0.0
25/03/2022,06:38:08,0.018,0.0,0.005,0.001
25/03/2022,06:39:08,0.017,0.0,0.005,0.0
25/03/2022,06:40:08,0.019,0.0,0.005,0.0
25/03/2022,06:41:08,0.020,0.0,0.006,0.001
25/03/2022,06:42:08,0.021,0.0,0.006,0.0
25/03/2022,06:43:08,0.022,0.0,0.006,0.0
25/03/2022,06:44:08,0.022,0.0,0.007,0.001
25/03/2022,06:45:08,0.023,0.0,0.007,0.0
25/03/2022,06:46:08,0.024,0.0,0.007,0.0
25/03/2022,06:47:12,0.025,0.0,0.008,0.001
25/03/2022,06:48:08,0.026,0.0,0.008,0.0
25/03/2022,06:49:08,0.026,0.0,0.009,0.001
25/03/2022,06:50:17,0.028,0.0,0.009,0.0
25/03/2022,06:51:08,0.029,0.0,0.01,0.001
25/03/2022,06:52:08,0.029,0.0,0.01,0.0
25/03/2022,06:53:08,0.030,0.0,0.011,0.001
25/03/2022,06:54:08,0.031,0.0,0.011,0.0
25/03/2022,06:55:08,0.033,0.0,0.012,0.001
25/03/2022,06:56:08,0.035,0.0,0.012,0.0
25/03/2022,06:57:08,0.035,0.0,0.013,0.001
25/03/2022,06:58:08,0.036,0.0,0.013,0.0
25/03/2022,06:59:08,0.037,0.0,0.014,0.001
25/03/2022,07:00:16,0.039,0.0,0.015,0.001
25/03/2022,07:01:08,0.040,0.0,0.015,0.0
25/03/2022,07:02:08,0.041,0.0,0.016,0.001
25/03/2022,07:03:08,0.042,0.0,0.017,0.001
25/03/2022,07:04:08,0.044,0.0,0.017,0.0
25/03/2022,07:05:11,0.045,0.0,0.018,0.001
25/03/2022,07:06:07,0.046,0.0,0.019,0.001
25/03/2022,07:07:08,0.048,0.0,0.02,0.001
25/03/2022,07:08:08,0.049,0.0,0.02,0.0
25/03/2022,07:09:08,0.050,0.0,0.021,0.001
25/03/2022,07:10:08,0.052,0.0,0.022,0.001
25/03/2022,07:11:08,0.054,0.0,0.023,0.001
25/03/2022,07:12:08,0.055,0.0,0.024,0.001
25/03/2022,07:13:08,0.057,0.0,0.025,0.001
25/03/2022,07:14:16,0.060,0.0,0.026,0.001
25/03/2022,07:15:08,0.060,0.0,0.027,0.001
25/03/2022,07:16:08,0.062,0.0,0.028,0.001
25/03/2022,07:17:08,0.064,0.0,0.029,0.001
25/03/2022,07:18:08,0.065,0.0,0.03,0.001
25/03/2022,07:19:08,0.067,0.0,0.031,0.001
25/03/2022,07:20:08,0.069,0.0,0.032,0.001
25/03/2022,07:21:16,0.071,0.0,0.033,0.001
25/03/2022,07:22:08,0.073,0.0,0.034,0.001
25/03/2022,07:23:08,0.075,0.0,0.036,0.002
25/03/2022,07:24:16,0.077,0.0,0.037,0.001
25/03/2022,07:25:08,0.079,0.0,0.038,0.001
25/03/2022,07:26:08,0.081,0.0,0.04,0.002
25/03/2022,07:27:08,0.083,0.0,0.041,0.001
25/03/2022,07:28:08,0.085,0.0,0.042,0.001
25/03/2022,07:29:08,0.087,0.0,0.044,0.002
25/03/2022,07:30:08,0.089,0.0,0.045,0.001
25/03/2022,07:31:08,0.091,0.0,0.047,0.002
25/03/2022,07:32:08,0.093,0.0,0.048,0.001
25/03/2022,07:33:08,0.097,0.0,0.05,0.002
25/03/2022,07:34:08,0.099,0.0,0.052,0.002
25/03/2022,07:35:08,0.101,0.0,0.053,0.001
25/03/2022,07:36:08,0.103,0.0,0.055,0.002
25/03/2022,07:37:16,0.105,0.0,0.057,0.002
25/03/2022,07:38:08,0.108,0.0,0.058,0.001
25/03/2022,07:39:08,0.111,0.0,0.06,0.002
25/03/2022,07:40:16,0.114,0.0,0.062,0.002
25/03/2022,07:41:08,0.116,0.0,0.064,0.002
25/03/2022,07:42:08,0.118,0.0,0.066,0.002
25/03/2022,07:43:16,0.121,0.0,0.068,0.002
25/03/2022,07:44:08,0.122,0.0,0.07,0.002
25/03/2022,07:46:01,0.129,0.0,0.074,0.004
25/03/2022,07:47:16,0.131,0.0,0.077,0.003
25/03/2022,07:48:08,0.133,0.0,0.079,0.002
25/03/2022,07:49:08,0.137,0.0,0.081,0.002
25/03/2022,07:50:08,0.139,0.0,0.083,0.002
25/03/2022,07:51:08,0.142,0.0,0.085,0.002
25/03/2022,07:52:08,0.144,0.0,0.088,0.003
25/03/2022,07:53:16,0.148,0.0,0.091,0.003
25/03/2022,07:54:08,0.151,0.0,0.093,0.002
25/03/2022,07:55:08,0.154,0.0,0.095,0.002
25/03/2022,07:56:08,0.157,0.0,0.098,0.003
25/03/2022,07:57:08,0.160,0.0,0.101,0.003
25/03/2022,07:58:08,0.162,0.0,0.103,0.002
25/03/2022,07:59:09,0.166,0.0,0.106,0.003
25/03/2022,08:00:09,0.168,0.0,0.109,0.003
25/03/2022,08:01:08,0.171,0.0,0.112,0.003
25/03/2022,08:02:08,0.175,0.0,0.114,0.002
25/03/2022,08:03:08,0.178,0.0,0.117,0.003
25/03/2022,08:04:08,0.181,0.0,0.12,0.003
25/03/2022,08:05:08,0.184,0.0,0.123,0.003
25/03/2022,08:06:08,0.188,0.0,0.126,0.003
25/03/2022,08:07:08,0.191,0.0,0.13,0.004
25/03/2022,08:08:08,0.194,0.0,0.133,0.003
25/03/2022,08:09:16,0.198,0.0,0.137,0.004
25/03/2022,08:10:08,0.201,0.0,0.139,0.002
25/03/2022,08:11:07,0.205,0.0,0.143,0.004
25/03/2022,08:12:08,0.208,0.0,0.146,0.003
25/03/2022,08:13:08,0.212,0.0,0.15,0.004
25/03/2022,08:14:16,0.217,0.0,0.154,0.004
25/03/2022,08:15:08,0.220,1.0,0.157,0.003
25/03/2022,08:16:08,0.224,1.0,0.161,0.004
25/03/2022,08:17:08,0.228,1.0,0.164,0.003
25/03/2022,08:18:08,0.232,1.0,0.168,0.004
25/03/2022,08:19:08,0.235,1.0,0.172,0.004
25/03/2022,08:20:08,0.240,1.0,0.176,0.004
25/03/2022,08:21:08,0.243,1.0,0.18,0.004
25/03/2022,08:22:08,0.247,1.0,0.184,0.004
25/03/2022,08:24:01,0.254,1.0,0.192,0.008
25/03/2022,08:25:08,0.259,1.0,0.197,0.005
25/03/2022,08:26:08,0.263,1.0,0.201,0.004
25/03/2022,08:27:09,0.267,1.0,0.206,0.005
25/03/2022,08:28:08,0.271,1.0,0.21,0.004
25/03/2022,08:29:08,0.274,1.0,0.215,0.005
25/03/2022,08:30:08,0.278,1.0,0.219,0.004
25/03/2022,08:31:08,0.284,1.0,0.224,0.005
25/03/2022,08:32:08,0.287,1.0,0.229,0.005
25/03/2022,08:33:08,0.292,1.0,0.234,0.005
25/03/2022,08:34:08,0.297,1.0,0.238,0.004
25/03/2022,08:35:08,0.301,1.0,0.243,0.005
25/03/2022,08:36:09,0.305,1.0,0.248,0.005
25/03/2022,08:37:17,0.309,1.0,0.254,0.006
25/03/2022,08:38:08,0.313,1.0,0.259,0.005
25/03/2022,08:39:08,0.317,1.0,0.264,0.005
25/03/2022,08:40:08,0.321,1.0,0.269,0.005
25/03/2022,08:41:08,0.323,1.0,0.275,0.006
25/03/2022,08:42:08,0.323,1.0,0.28,0.005
25/03/2022,08:43:16,0.327,1.0,0.286,0.006
25/03/2022,08:45:09,0.336,1.0,0.297,0.011
25/03/2022,08:46:08,0.332,1.0,0.302,0.005
25/03/2022,08:47:09,0.339,1.0,0.308,0.006
25/03/2022,08:48:08,0.353,1.0,0.313,0.005
25/03/2022,08:49:08,0.363,1.0,0.319,0.006
25/03/2022,08:50:08,0.368,1.0,0.326,0.007
25/03/2022,08:51:08,0.374,1.0,0.332,0.006
25/03/2022,08:52:08,0.380,1.0,0.338,0.006
25/03/2022,08:53:17,0.385,1.0,0.345,0.007
25/03/2022,08:54:08,0.389,1.0,0.351,0.006
25/03/2022,08:55:08,0.391,1.0,0.357,0.006
25/03/2022,08:56:08,0.386,1.0,0.364,0.007
25/03/2022,08:57:08,0.372,1.0,0.37,0.006
25/03/2022,08:58:08,0.383,1.0,0.376,0.006
25/03/2022,08:59:08,0.401,1.0,0.383,0.007
25/03/2022,09:00:09,0.412,1.0,0.39,0.007
25/03/2022,09:01:08,0.421,1.0,0.397,0.007
25/03/2022,09:02:08,0.428,1.0,0.404,0.007
25/03/2022,09:03:16,0.436,1.0,0.412,0.008
25/03/2022,09:05:09,0.448,1.0,0.426,0.014
25/03/2022,09:06:08,0.453,1.0,0.433,0.007
25/03/2022,09:07:09,0.458,1.0,0.441,0.008
25/03/2022,09:08:08,0.464,1.0,0.448,0.007
25/03/2022,09:09:08,0.474,1.0,0.456,0.008
25/03/2022,09:10:09,0.478,1.0,0.464,0.008
25/03/2022,09:11:08,0.482,1.0,0.472,0.008
25/03/2022,09:12:08,0.488,1.0,0.48,0.008
25/03/2022,09:13:08,0.492,1.0,0.488,0.008
25/03/2022,09:14:08,0.497,1.0,0.497,0.009
25/03/2022,09:15:09,0.504,1.0,0.505,0.008
25/03/2022,09:16:08,0.509,1.0,0.513,0.008
25/03/2022,09:17:08,0.512,1.0,0.522,0.009
25/03/2022,09:18:09,0.517,1.0,0.53,0.008
25/03/2022,09:19:08,0.522,1.0,0.539,0.009
25/03/2022,09:20:08,0.524,1.0,0.548,0.009
25/03/2022,09:21:09,0.529,1.0,0.557,0.009
25/03/2022,09:22:08,0.535,1.0,0.565,0.008
25/03/2022,09:23:08,0.540,1.0,0.574,0.009
25/03/2022,09:24:08,0.546,1.0,0.584,0.01
25/03/2022,09:25:08,0.550,1.0,0.593,0.009
25/03/2022,09:26:08,0.554,1.0,0.602,0.009
25/03/2022,09:27:08,0.559,1.0,0.611,0.009
25/03/2022,09:28:09,0.561,1.0,0.62,0.009
25/03/2022,09:29:08,0.567,1.0,0.63,0.01
25/03/2022,09:30:08,0.572,1.0,0.639,0.009
25/03/2022,09:31:08,0.577,1.0,0.649,0.01
25/03/2022,09:32:08,0.580,1.0,0.659,0.01
25/03/2022,09:33:09,0.585,1.0,0.668,0.009
25/03/2022,09:34:08,0.590,1.0,0.678,0.01
25/03/2022,09:35:09,0.595,1.0,0.688,0.01
25/03/2022,09:36:17,0.600,1.0,0.699,0.011
25/03/2022,09:38:09,0.610,1.0,0.718,0.019
25/03/2022,09:39:08,0.615,1.0,0.728,0.01
25/03/2022,09:40:09,0.619,1.0,0.739,0.011
25/03/2022,09:41:09,0.623,1.0,0.749,0.01
25/03/2022,09:42:08,0.629,1.0,0.759,0.01
25/03/2022,09:43:08,0.633,1.0,0.77,0.011
25/03/2022,09:44:08,0.637,1.0,0.78,0.01
25/03/2022,09:45:08,0.640,1.0,0.791,0.011
25/03/2022,09:46:09,0.647,1.0,0.802,0.011
25/03/2022,09:47:08,0.653,2.0,0.813,0.011
25/03/2022,09:48:08,0.658,2.0,0.824,0.011
25/03/2022,09:49:16,0.661,2.0,0.836,0.012
25/03/2022,09:50:07,0.667,2.0,0.846,0.01
25/03/2022,09:51:09,0.672,2.0,0.857,0.011
25/03/2022,09:52:16,0.678,2.0,0.869,0.012
25/03/2022,09:54:09,0.689,2.0,0.891,0.022
25/03/2022,09:55:17,0.696,2.0,0.904,0.013
25/03/2022,09:57:09,0.704,2.0,0.926,0.022
25/03/2022,09:58:09,0.712,2.0,0.937,0.011
25/03/2022,09:59:09,0.720,2.0,0.949,0.012
25/03/2022,10:00:08,0.725,2.0,0.961,0.012
25/03/2022,10:01:08,0.729,2.0,0.973,0.012
25/03/2022,10:02:08,0.733,2.0,0.986,0.013
25/03/2022,10:03:08,0.738,2.0,0.998,0.012
25/03/2022,10:04:17,0.742,2.0,1.012,0.014
25/03/2022,10:06:09,0.754,2.0,1.036,0.024
25/03/2022,10:07:08,0.763,2.0,1.048,0.012
25/03/2022,10:08:18,0.765,2.0,1.063,0.015
25/03/2022,10:10:09,0.772,2.0,1.086,0.023
25/03/2022,10:11:08,0.778,2.0,1.099,0.013
25/03/2022,10:12:08,0.780,2.0,1.112,0.013
25/03/2022,10:13:08,0.787,2.0,1.125,0.013
25/03/2022,10:14:08,0.794,2.0,1.138,0.013
25/03/2022,10:15:08,0.800,2.0,1.152,0.014
25/03/2022,10:16:08,0.805,2.0,1.165,0.013
25/03/2022,10:17:08,0.812,2.0,1.178,0.013
25/03/2022,10:18:17,0.818,2.0,1.194,0.016
25/03/2022,10:20:09,0.832,2.0,1.219,0.025
25/03/2022,10:21:17,0.833,2.0,1.235,0.016
25/03/2022,10:23:09,0.844,2.0,1.262,0.027
25/03/2022,10:24:09,0.848,2.0,1.275,0.013
25/03/2022,10:25:08,0.853,2.0,1.29,0.015
25/03/2022,10:26:09,0.860,2.0,1.304,0.014
25/03/2022,10:27:09,0.866,2.0,1.318,0.014
25/03/2022,10:28:08,0.869,2.0,1.333,0.015
25/03/2022,10:29:08,0.875,2.0,1.347,0.014
25/03/2022,10:30:08,0.877,2.0,1.362,0.015
25/03/2022,10:31:08,0.879,2.0,1.377,0.015
25/03/2022,10:32:09,0.888,2.0,1.391,0.014
25/03/2022,10:33:08,0.891,2.0,1.406,0.015
25/03/2022,10:34:16,0.898,2.0,1.423,0.017
25/03/2022,10:38:10,0.918,2.0,1.482,0.059
25/03/2022,10:39:08,0.920,2.0,1.497,0.015
25/03/2022,10:40:08,0.925,2.0,1.512,0.015
25/03/2022,10:41:08,0.925,2.0,1.528,0.016
25/03/2022,10:42:08,0.930,2.0,1.543,0.015
25/03/2022,10:43:08,0.932,2.0,1.559,0.016